{"data":{"norad_id":62623,"intl_designator":"2025-009Q","name":"OTTER","alt_names":[],"object_type":"PAYLOAD","status":"ACTIVE","operator":null,"country":"US","launch_date":"2025-01-14","launch_site_code":"AFWTR","launch_vehicle":null,"mission":null,"orbit_class":"UNKNOWN","rcs_meters":null,"size_class":null,"mass_kg":null,"dimensions":null,"purposes":[],"wikipedia_slug":null,"has_3d_model":false,"image_url":null,"decayed_at":null,"tle_current":{"epoch":"2026-09-22T17:46:23.912256Z","epoch_age_seconds":124029,"freshness":"FRESH","line1":"1 62623U 25009Q   26265.74055454  .00006847  00000+0  22781-3 0  9997","line2":"2 62623  97.3976 347.6118 0003690 341.3056  18.8049 15.31474235 93841","mean_motion":15.31474235,"eccentricity":0.000369,"inclination_deg":97.3976,"raan_deg":347.6118,"arg_perigee_deg":341.3056,"mean_anomaly_deg":18.8049,"bstar":0.00022781,"rev_number":9384,"period_min":94.027047082513,"perigee_km":468.88558764048,"apogee_km":473.94055559334,"semimajor_km":6849.5500716169,"source":"CELESTRAK","updated_at":"2026-09-23T09:00:21.530963Z"}}}